User: anonymous   Login
Location: Unspecified
(0.0000°N, 0.0000°E)
Time: 19:26:15
(UTC+00:00)
Language:

MUNIN - Orbit

View from above orbital plane
View from above orbital plane
View from above satellite
View from above satellite

Ground track
Ground track

The orbit data is extracted from the following two-line orbital elements,

1 26621U 00075C   19077.73149696 -.00000272  00000-0 -23359-3 0  9996
2 26621  95.4058 189.7150 0711524 230.4868 123.1259 13.04177624871859
Epoch (UTC): 18 March 2019 17:33:21
Eccentricity: 0.0711524
inclination: 95.4058°
perigee height: 703 km
apogee height: 1788 km
right ascension of ascending node: 189.7150°
argument of perigee: 230.4868°
revolutions per day: 13.04177624
mean anomaly at epoch: 123.1259°
orbit number at epoch: 87185

The dashed part of the orbit path shows where the satellite is in the earth's shadow,  

DLR